7 * 24
多渠道服务支持
STARLINK-34075是美国太空探索技术公司SpaceX星链(Starlink)星座中的一颗低轨宽带卫星,于2025年5月10日发射入轨,旨在为全球尤其是地面网络覆盖不足的偏远地区提供高速、稳定的卫星互联网服务,助力实现全域宽带连接,支撑消费、商业及特殊场景的联网需求,进一步扩充星链星座规模。
美国
(US)
| 数据来源 | 国际轨道数据 |
| 星历时间: | 2026-09-04T14:46:33+0800 6小时前 查看轨道信息 |
| 半长轴: | 6861.139km |
| 偏心率: | 0.0001435 |
| 轨道倾角: | 42.999° |
| 近地点辐角 | 264.651° |
| 升交点赤经 | 247.406° |
| 平近点角 | 95.418° |
| 近地点: | 482.017km |
| 远地点: | 483.987km |
| 周期: | 94.266分钟 |
| 每日圈数: | 15.275959 |
| 事件ID | 空间交会对象 | 最接近时刻(TCA) | 交会距离 | 交会风险概率(CRP) | 交会风险指数(CRI) | 操作 |
|---|---|---|---|---|---|---|
| CDM_260906-063305-992506-391721 |
STARLINK-31959
(59925)
STARLINK-34075
(63917) | 2026-09-06T 06:33:25+0000 |
0.285 km
中距离 | 4.635485E-4 高风险 | 0.88 | |
| CDM_260906-080705-992506-391721 |
STARLINK-31959
(59925)
STARLINK-34075
(63917) | 2026-09-06T 08:07:35+0000 |
2.141 km
极远距离 | 1.913324E-6 低风险 | 0.41 | |
| CDM_260829-093706-391706-698421 |
STARLINK-34075
(63917)
STARLINK-35591
(66984) | 2026-08-29T 09:37:19+0000 |
2.383 km
极远距离 | 1.529053E-6 低风险 | 0.39 | |
| CDM_260906-045905-992506-391721 |
STARLINK-31959
(59925)
STARLINK-34075
(63917) | 2026-09-06T 04:59:16+0000 |
2.496 km
极远距离 | 1.405545E-6 低风险 | 0.38 | |
| CDM_260906-181106-391706-644921 |
STARLINK-34075
(63917)
STARLINK-34720
(66449) | 2026-09-06T 18:11:26+0000 |
2.418 km
极远距离 | 1.286462E-6 低风险 | 0.37 | |
| CDM_260829-015905-771206-391721 |
STARLINK-30348
(57712)
STARLINK-34075
(63917) | 2026-08-29T 01:59:26+0000 |
2.592 km
极远距离 | 8.891419E-7 极低风险 | 0.34 |